GW2897 Weather Reports


Display with metric or nautical units.
time (UTC)temp
F
wind
direction
speed
MPH
gust
MPH
rain 1hr
in
rain 24hr
in
rain mn
in
humidity
%
barometer
mb
20260904095403 72 0 0.0 0.0 0.00 0.00 0.00 95 1016.6
20260904094503 72 0 0.0 0.0 0.00 0.00 0.00 95 1016.6
20260904093603 72 0 0.0 0.0 0.00 0.00 0.00 95 1016.5
20260904092703 72 0 0.0 0.0 0.00 0.00 0.00 95 1016.2
20260904091803 72 0 0.0 0.0 0.00 0.00 0.00 95 1016.2
20260904090924 72 0 0.0 0.0 0.00 0.00 0.00 94 1016.2
20260904090003 73 0 0.0 0.0 0.00 0.00 0.00 95 1016.2
20260904085403 73 0 0.0 0.0 0.00 0.00 0.00 95 1016.1
20260904084524 72 0 0.0 0.0 0.00 0.00 0.00 94 1016.0
20260904083624 73 0 0.0 0.0 0.00 0.00 0.00 94 1015.9
20260904082724 73 0 0.0 0.0 0.00 0.00 0.00 94 1015.8
20260904081803 73 0 0.0 0.0 0.00 0.00 0.00 93 1015.7
20260904080903 73 0 0.0 0.0 0.00 0.00 0.00 93 1015.6
20260904080004 73 0 0.0 0.0 0.00 0.00 0.00 93 1015.7
20260904075424 73 0 0.0 0.0 0.00 0.00 0.00 93 1015.7
20260904074524 73 0 0.0 0.0 0.00 0.00 0.00 92 1015.8
20260904073603 74 0 0.0 0.0 0.00 0.00 0.00 92 1015.8
20260904072703 74 0 0.0 0.0 0.00 0.00 0.00 92 1015.8
20260904071824 74 0 0.0 0.0 0.00 0.00 0.00 91 1015.8
20260904070903 74 0 0.0 0.0 0.00 0.00 0.00 90 1016.0
20260904070024 75 0 0.0 0.0 0.00 0.00 0.00 90 1015.8
20260904065403 75 0 0.0 0.0 0.00 0.00 0.00 90 1015.8
20260904064503 75 0 0.0 0.0 0.00 0.00 0.00 89 1015.9
20260904063600 76 0 0.0 0.0 0.00 0.00 0.00 89 1015.9
20260904062700 76 0 0.0 0.0 0.00 0.00 0.00 89 1016.0
20260904061800 76 104 0.0 1.0 0.00 0.00 0.00 89 1016.1
20260904060900 76 0 0.0 0.0 0.00 0.00 0.00 88 1016.3
20260904060000 76 0 0.0 0.0 0.00 0.00 0.00 87 1016.3
20260904055400 77 0 0.0 0.0 0.00 0.00 0.00 87 1016.4
20260904054500 77 104 0.0 1.0 0.00 0.00 0.00 86 1016.5
20260904053600 77 103 0.0 1.0 0.00 0.00 0.00 86 1016.6
20260904052701 78 107 0.0 1.0 0.00 0.00 0.00 86 1016.6
20260904051801 78 112 0.0 1.0 0.00 0.00 0.00 85 1016.7
20260904050900 78 112 0.0 1.0 0.00 0.00 0.00 85 1016.7
20260904050000 78 133 0.0 1.0 0.00 0.00 0.00 84 1016.9
20260904045422 78 133 0.0 1.0 0.00 0.00 0.00 84 1016.9
20260904044501 79 133 0.0 1.0 0.00 0.00 0.00 84 1016.8
20260904043600 79 117 0.0 3.0 0.00 0.00 0.00 83 1016.9
20260904042700 79 132 0.0 1.0 0.00 0.00 0.00 83 1016.9
20260904041801 79 136 0.0 1.0 0.00 0.00 0.00 84 1017.0
20260904040900 79 0 0.0 0.0 0.00 0.00 0.00 83 1017.1
20260904040000 79 0 0.0 0.0 0.00 0.00 0.00 83 1017.0
20260904035400 79 115 0.0 1.0 0.00 0.00 0.00 83 1016.9
20260904034501 80 114 0.0 1.0 0.00 0.00 0.00 83 1017.0
20260904033601 80 113 0.0 1.0 0.00 0.00 0.00 81 1017.0
20260904032700 80 113 0.0 1.0 0.00 0.00 0.00 81 1017.1
20260904031801 81 113 0.0 1.0 0.00 0.00 0.00 81 1017.1
20260904030900 81 113 0.0 1.0 0.00 0.00 0.00 80 1017.1
20260904030000 81 113 0.0 1.0 0.00 0.00 0.00 79 1017.1
20260904025400 82 119 0.0 1.0 0.00 0.00 0.00 79 1017.0
20260904024500 82 115 0.0 1.0 0.00 0.00 0.00 79 1017.0
20260904023601 82 0 0.0 0.0 0.00 0.00 0.00 79 1017.0
20260904022722 82 0 0.0 0.0 0.00 0.00 0.00 79 1017.0
20260904021801 83 0 0.0 0.0 0.00 0.00 0.00 78 1017.0
20260904020901 84 0 0.0 0.0 0.00 0.00 0.00 76 1016.9
20260904020001 84 127 0.0 1.0 0.00 0.00 0.00 76 1016.8
20260904015421 84 137 0.0 2.0 0.00 0.00 0.00 75 1016.8
20260904014501 84 133 0.0 3.0 0.00 0.00 0.00 75 1016.6
20260904013601 84 163 0.0 3.0 0.00 0.00 0.00 76 1016.5
20260904012701 84 121 0.0 1.0 0.00 0.00 0.00 76 1016.4
20260904011822 84 110 0.0 1.0 0.00 0.00 0.00 76 1016.2
20260904010922 85 97 0.0 1.0 0.00 0.00 0.00 76 1016.2
20260904010001 84 119 0.0 1.0 0.00 0.00 0.00 75 1016.1
20260904005401 84 106 0.0 2.0 0.00 0.00 0.00 77 1016.0
20260904004501 84 106 0.0 2.0 0.00 0.00 0.00 77 1015.7
20260904003601 84 0 0.0 0.0 0.00 0.00 0.00 77 1015.5
20260904002701 85 0 0.0 0.0 0.00 0.00 0.00 76 1015.3
20260904001801 86 0 0.0 0.0 0.00 0.00 0.00 74 1015.2
20260904000901 87 0 0.0 0.0 0.00 0.00 0.00 73 1015.0
20260904000022 88 0 0.0 0.0 0.00 0.00 0.00 71 1014.8
20260903235401 89 0 0.0 0.0 0.00 0.00 0.00 70 1014.9
20260903234523 90 0 0.0 0.0 0.00 0.00 0.00 69 1014.8
20260903233601 91 0 0.0 0.0 0.00 0.00 0.00 65 1014.7
20260903232701 93 120 0.0 1.0 0.00 0.00 0.00 62 1014.8
20260903231801 94 113 0.0 1.0 0.00 0.00 0.00 61 1014.8
20260903230901 95 124 0.0 3.0 0.00 0.00 0.00 59 1014.9
20260903230022 95 112 1.0 4.0 0.00 0.00 0.00 59 1015.0
20260903225401 96 111 1.0 5.0 0.00 0.00 0.00 58 1015.0
20260903224501 96 113 1.0 5.0 0.00 0.00 0.00 57 1014.9
20260903223602 96 113 1.0 5.0 0.00 0.00 0.00 55 1015.0
20260903222701 97 103 2.0 5.0 0.00 0.00 0.00 56 1014.8
20260903221801 97 88 1.0 5.0 0.00 0.00 0.00 55 1014.7
20260903220901 98 92 1.0 8.0 0.00 0.00 0.00 54 1014.8
20260903220002 97 88 2.0 8.0 0.00 0.00 0.00 54 1014.8
20260903215402 98 69 2.0 5.0 0.00 0.00 0.00 54 1014.8
20260903214501 98 119 2.0 7.0 0.00 0.00 0.00 53 1014.8
20260903213602 98 122 2.0 7.0 0.00 0.00 0.00 52 1014.8
20260903212702 99 92 2.0 6.0 0.00 0.00 0.00 51 1014.9
20260903211802 99 100 2.0 8.0 0.00 0.00 0.00 52 1014.8
20260903210923 99 100 2.0 8.0 0.00 0.00 0.00 52 1014.8
20260903210002 98 110 3.0 6.0 0.00 0.00 0.00 53 1014.9
20260903205402 99 117 2.0 6.0 0.00 0.00 0.00 51 1015.0
20260903204502 99 111 3.0 11.0 0.00 0.00 0.00 52 1015.2
20260903203602 100 118 2.0 5.0 0.00 0.00 0.00 52 1015.2
20260903202702 99 111 2.0 10.0 0.00 0.00 0.00 53 1015.3
20260903201802 99 134 2.0 10.0 0.00 0.00 0.00 52 1015.3
20260903200902 100 127 2.0 6.0 0.00 0.00 0.00 52 1015.4
20260903200001 99 108 2.0 6.0 0.00 0.00 0.00 53 1015.6
20260903195402 98 104 2.0 6.0 0.00 0.00 0.00 53 1015.8
20260903194523 98 129 3.0 10.0 0.00 0.00 0.00 54 1015.8
20260903193602 99 135 2.0 6.0 0.00 0.00 0.00 53 1015.8
20260903192702 99 139 3.0 7.0 0.00 0.00 0.00 53 1015.9
20260903191802 99 125 1.0 7.0 0.00 0.00 0.00 54 1016.0
20260903190902 97 123 4.0 9.0 0.00 0.00 0.00 55 1016.1
20260903190002 98 107 2.0 8.0 0.00 0.00 0.00 55 1016.1
20260903185402 97 123 4.0 10.0 0.00 0.00 0.00 56 1016.3
20260903184502 96 115 2.0 9.0 0.00 0.00 0.00 57 1016.4
20260903183602 97 124 2.0 6.0 0.00 0.00 0.00 54 1016.4
20260903182723 98 124 2.0 6.0 0.00 0.00 0.00 54 1016.5
20260903181802 98 39 1.0 5.0 0.00 0.00 0.00 56 1016.5
20260903180902 97 130 1.0 6.0 0.00 0.00 0.00 56 1016.6
20260903180023 96 167 1.0 6.0 0.00 0.00 0.00 57 1016.6
20260903175402 96 177 2.0 6.0 0.00 0.00 0.00 58 1016.7
20260903174502 97 133 3.0 6.0 0.00 0.00 0.00 57 1016.7
20260903173602 98 95 3.0 9.0 0.00 0.00 0.00 54 1016.8
20260903172723 98 109 1.0 5.0 0.00 0.00 0.00 57 1016.8
20260903171802 96 324 1.0 4.0 0.00 0.00 0.00 59 1017.0
20260903170902 95 145 2.0 5.0 0.00 0.00 0.00 59 1017.1
20260903170002 96 106 1.0 3.0 0.00 0.00 0.00 59 1017.2
20260903165402 98 110 0.0 3.0 0.00 0.00 0.00 58 1017.2
20260903164502 97 111 3.0 9.0 0.00 0.00 0.00 58 1017.3
20260903163602 97 110 2.0 5.0 0.00 0.00 0.00 58 1017.4
20260903162703 95 111 3.0 6.0 0.00 0.00 0.00 59 1017.4
20260903161802 95 150 2.0 7.0 0.00 0.00 0.00 62 1017.4
20260903160902 95 134 2.0 7.0 0.00 0.00 0.00 65 1017.6
20260903160002 94 167 2.0 5.0 0.00 0.00 0.00 64 1017.7
20260903155403 94 146 2.0 4.0 0.00 0.00 0.00 67 1017.6
20260903154503 93 116 3.0 8.0 0.00 0.00 0.00 66 1017.7
20260903153602 94 141 1.0 4.0 0.00 0.00 0.00 66 1017.6
20260903152723 92 160 2.0 5.0 0.00 0.00 0.00 67 1017.7
20260903151802 92 185 1.0 4.0 0.00 0.00 0.00 68 1017.7
20260903150924 91 216 1.0 4.0 0.00 0.00 0.00 68 1017.8
20260903150002 91 151 2.0 5.0 0.00 0.00 0.00 69 1017.8
20260903145403 90 153 1.0 5.0 0.00 0.00 0.00 70 1017.7
20260903144503 90 125 2.0 4.0 0.00 0.00 0.00 70 1017.7
20260903143603 90 175 1.0 3.0 0.00 0.00 0.00 70 1017.6
20260903142702 89 206 1.0 4.0 0.00 0.00 0.00 72 1017.6
20260903141824 87 236 1.0 4.0 0.00 0.00 0.00 73 1017.7
20260903140924 87 219 1.0 4.0 0.00 0.00 0.00 74 1017.8
20260903140003 86 233 1.0 5.0 0.00 0.00 0.00 76 1017.8
20260903135402 85 224 1.0 6.0 0.00 0.00 0.00 77 1017.7
20260903134503 84 247 2.0 4.0 0.00 0.00 0.00 79 1017.8
20260903133603 83 260 1.0 4.0 0.00 0.00 0.00 80 1017.9
20260903132703 83 256 1.0 4.0 0.00 0.00 0.00 81 1018.0
20260903131803 82 279 1.0 4.0 0.00 0.00 0.00 82 1018.0
20260903130924 82 286 1.0 4.0 0.00 0.00 0.00 83 1018.0
20260903130003 81 253 2.0 5.0 0.00 0.00 0.00 84 1018.0
20260903125424 80 265 2.0 5.0 0.00 0.00 0.00 85 1018.1
20260903124503 80 272 1.0 4.0 0.00 0.00 0.00 86 1018.1
20260903123603 78 272 0.0 3.0 0.00 0.00 0.00 88 1018.0
20260903122703 77 335 0.0 3.0 0.00 0.00 0.00 91 1018.0
20260903121803 76 27 0.0 8.0 0.00 0.00 0.00 93 1018.1
20260903120903 75 357 0.0 1.0 0.00 0.00 0.00 94 1018.1
20260903120003 74 0 0.0 0.0 0.00 0.00 0.00 94 1018.1
20260903115403 74 0 0.0 0.0 0.00 0.00 0.00 94 1018.0
20260903114503 74 0 0.0 0.0 0.00 0.00 0.00 94 1018.0
20260903113603 73 0 0.0 0.0 0.00 0.00 0.00 94 1017.9
20260903112703 73 0 0.0 0.0 0.00 0.00 0.00 94 1017.8
20260903111824 73 0 0.0 0.0 0.00 0.00 0.00 94 1017.7
20260903110903 73 0 0.0 0.0 0.00 0.00 0.00 94 1017.6
20260903110003 74 0 0.0 0.0 0.00 0.00 0.00 93 1017.5
20260903105403 74 0 0.0 0.0 0.00 0.00 0.00 93 1017.5
20260903104503 74 0 0.0 0.0 0.00 0.00 0.00 93 1017.4
20260903103603 74 0 0.0 0.0 0.00 0.00 0.00 93 1017.4
20260903102703 74 301 0.0 1.0 0.00 0.00 0.00 93 1017.2
20260903101803 74 0 0.0 0.0 0.00 0.00 0.00 92 1017.2
20260903100903 74 0 0.0 0.0 0.00 0.00 0.00 92 1017.3
20260903095959 74 0 0.0 0.0 0.00 0.00 0.00 92 1017.2